Darstellungsparameter: Aktuell verwendete Einstellungen:
Skalierung der Graphiken ... ?
xyx+y,   Skalierungsfaktor:      Skalierung: Modus: x, Faktor: 1
Darstellungszeitraum ... ?
Vom - - bis: - -   Zeitraum: 30.03.2020 - 31.03.2020
Min/Max/Avg-Anzeige ... ?
Zeige MMA aktuell
Zeige MMA Monat
Zeige MMA alles
Zeige --A aktuell
Zeige --A Monat
Zeige --A alles
Keine MMA-Anzeige
MMA:
Average (ber die Originaldaten)
MMA-Basis: 30.03.2020 - 31.03.2020
Quicknavigation für Darstellung... ?
Tage:      1T, 2T, 3T, 5T -1T -2T -3T -5T +1T +2T +3T +5T
Wochen: 1W, 2W, 3W -1W -2W -3W +1W +2W +3W
Monate: 1M, 3M, 6M -1M -3M -6M +1M +3M +6M
Jahre:    1J, 3J, 5J, 10J -1J -3J -5J -10J +1J +3J +5J +10J
Nutze für die Darstellung ... ?
Originaldaten oder Mittelwerte auf ...
Stundenbasis Tagesbasis Wochenbasis
Monatsbasis Jahresbasis      Datenbasis: Original-Daten
Darstellen als:
Statistik (Auto) Statistik J:M      Darstellung:
Zur Graphik,    zurück zur Übersicht aller Sensoren.
 
Tabellarische Datenbersicht: ?
 
Sensor: Nr:Datum:Temp:Feuchte:
Aussen-T/F 1 30-03-2020 00:00:18 2.5 C 34 %
2 30-03-2020 00:10:18 2.4 C 33 %
3 30-03-2020 00:20:17 2.4 C 33 %
4 30-03-2020 00:30:17 1.7 C 35 %
5 30-03-2020 00:40:17 1 C 36 %
6 30-03-2020 00:50:17 0.3 C 38 %
7 30-03-2020 01:00:18 0.2 C 38 %
8 30-03-2020 01:10:18 0.3 C 38 %
9 30-03-2020 01:20:17 0.3 C 37 %
10 30-03-2020 01:30:18 0.5 C 36 %
11 30-03-2020 01:40:18 -0.1 C 37 %
12 30-03-2020 01:50:17 -0.3 C 37 %
13 30-03-2020 02:00:17 -0.8 C 38 %
14 30-03-2020 02:10:17 -0.9 C 38 %
15 30-03-2020 02:20:17 -1.5 C 39 %
16 30-03-2020 02:30:18 -1.7 C 39 %
17 30-03-2020 02:40:18 -1.6 C 40 %
18 30-03-2020 02:50:17 -1.6 C 39 %
19 30-03-2020 03:00:18 -1.7 C 39 %
20 30-03-2020 03:10:18 -1.3 C 38 %
21 30-03-2020 03:20:18 -1.7 C 39 %
22 30-03-2020 03:30:18 -2.2 C 40 %
23 30-03-2020 03:40:18 -2.1 C 40 %
24 30-03-2020 03:50:17 -2.1 C 40 %
25 30-03-2020 04:00:18 -1.9 C 39 %
Sensor: Nr:Datum:Temp:Feuchte:
Aussen-T/F 26 30-03-2020 04:10:18 -2.2 C 39 %
27 30-03-2020 04:20:17 -2 C 39 %
28 30-03-2020 04:30:17 -2.4 C 39 %
29 30-03-2020 04:40:17 -2.6 C 39 %
30 30-03-2020 04:50:17 -2.4 C 39 %
31 30-03-2020 05:00:17 -2.4 C 38 %
32 30-03-2020 05:10:17 -2.5 C 38 %
33 30-03-2020 05:20:17 -2.7 C 38 %
34 30-03-2020 05:30:18 -3 C 39 %
35 30-03-2020 05:40:18 -3 C 38 %
36 30-03-2020 05:50:17 -3 C 38 %
37 30-03-2020 06:00:18 -3 C 38 %
38 30-03-2020 06:10:18 -3.4 C 38 %
39 30-03-2020 06:20:17 -3.7 C 39 %
40 30-03-2020 06:30:17 -3.9 C 40 %
41 30-03-2020 06:40:17 -4.1 C 40 %
42 30-03-2020 06:50:17 -3.3 C 39 %
43 30-03-2020 07:00:17 -3.7 C 40 %
44 30-03-2020 07:10:17 -3.2 C 39 %
45 30-03-2020 07:20:17 -3.8 C 39 %
46 30-03-2020 07:30:18 -4.3 C 40 %
47 30-03-2020 07:40:18 -4.5 C 40 %
48 30-03-2020 07:50:17 -4.5 C 40 %
49 30-03-2020 08:00:18 -3.8 C 40 %
50 30-03-2020 08:10:18 -3.9 C 40 %
Sensor: Nr:Datum:Temp:Feuchte:
Aussen-T/F 51 30-03-2020 08:20:18 -4.1 C 40 %
52 30-03-2020 08:30:18 -3.7 C 39 %
53 30-03-2020 08:40:18 -3.3 C 39 %
54 30-03-2020 08:50:17 -3.2 C 38 %
55 30-03-2020 09:00:18 -3.1 C 38 %
56 30-03-2020 09:10:18 -2.7 C 37 %
57 30-03-2020 09:20:18 -2.6 C 37 %
58 30-03-2020 09:30:18 -2.5 C 37 %
59 30-03-2020 09:40:18 -2.1 C 37 %
60 30-03-2020 09:50:18 -2.1 C 37 %
61 30-03-2020 10:00:18 -1.6 C 36 %
62 30-03-2020 10:10:18 -1.7 C 37 %
63 30-03-2020 10:20:17 -1.5 C 37 %
64 30-03-2020 10:30:17 -1.3 C 36 %
65 30-03-2020 10:40:17 0.1 C 31 %
66 30-03-2020 10:50:17 1 C 21 %
67 30-03-2020 11:00:17 1.1 C 23 %
68 30-03-2020 11:10:18 2 C 20 %
69 30-03-2020 11:20:18 2.4 C 20 %
70 30-03-2020 11:30:18 2.8 C 20 %
71 30-03-2020 11:40:18 2.9 C 20 %
72 30-03-2020 11:50:18 3.2 C 20 %
73 30-03-2020 12:00:18 3.7 C 20 %
74 30-03-2020 12:10:18 4 C 20 %
75 30-03-2020 12:20:18 6.4 C 20 %
Sensor: Nr:Datum:Temp:Feuchte:
Aussen-T/F 76 30-03-2020 12:30:18 7.6 C 20 %
77 30-03-2020 12:40:18 6.3 C 20 %
78 30-03-2020 12:50:18 5.1 C 20 %
79 30-03-2020 13:00:18 6.6 C 20 %
80 30-03-2020 13:10:18 6.5 C 20 %
81 30-03-2020 13:20:18 5.6 C 20 %
82 30-03-2020 13:30:17 5.9 C 20 %
83 30-03-2020 13:40:17 7 C 20 %
84 30-03-2020 13:50:17 6.4 C 20 %
85 30-03-2020 14:00:17 7.1 C 20 %
86 30-03-2020 14:10:17 8.4 C 20 %
87 30-03-2020 14:20:18 8.9 C 20 %
88 30-03-2020 14:30:18 9.5 C 20 %
89 30-03-2020 14:40:18 9.7 C 20 %
90 30-03-2020 14:50:18 10.8 C 20 %
91 30-03-2020 15:00:18 11.3 C 20 %
92 30-03-2020 15:10:18 11.7 C 20 %
93 30-03-2020 15:20:17 11.6 C 20 %
94 30-03-2020 15:30:18 13.5 C 20 %
95 30-03-2020 15:40:18 13.6 C 20 %
96 30-03-2020 15:50:18 11.9 C 20 %
97 30-03-2020 16:00:18 12.9 C 20 %
98 30-03-2020 16:10:18 13.6 C 20 %
99 30-03-2020 16:20:17 15.2 C 20 %
100 30-03-2020 16:30:18 9.9 C 20 %
Sensor: Nr:Datum:Temp:Feuchte:
Aussen-T/F 101 30-03-2020 16:40:18 13.9 C 20 %
102 30-03-2020 16:50:18 13.6 C 20 %
103 30-03-2020 17:00:17 10.1 C 20 %
104 30-03-2020 17:10:17 13.4 C 20 %
105 30-03-2020 17:20:18 12.5 C 20 %
106 30-03-2020 17:30:18 12.6 C 20 %
107 30-03-2020 17:40:18 11.6 C 20 %
108 30-03-2020 17:50:18 10.2 C 20 %
109 30-03-2020 18:00:18 8.7 C 20 %
110 30-03-2020 18:10:18 7.6 C 20 %
111 30-03-2020 18:20:18 7.9 C 20 %
112 30-03-2020 18:30:18 8.2 C 20 %
113 30-03-2020 18:40:18 7.7 C 20 %
114 30-03-2020 18:50:18 7.8 C 20 %
115 30-03-2020 19:00:18 7.3 C 20 %
116 30-03-2020 19:10:18 7.1 C 20 %
117 30-03-2020 19:20:17 6.5 C 20 %
118 30-03-2020 19:30:18 6.3 C 20 %
119 30-03-2020 19:40:18 5.8 C 20 %
120 30-03-2020 19:50:17 5 C 20 %
121 30-03-2020 20:00:18 3.8 C 27 %
122 30-03-2020 20:10:18 3 C 30 %
123 30-03-2020 20:20:17 2.8 C 30 %
124 30-03-2020 20:30:18 3.3 C 31 %
125 30-03-2020 20:40:18 3.2 C 30 %
Sensor: Nr:Datum:Temp:Feuchte:
Aussen-T/F 126 30-03-2020 20:50:18 3.3 C 31 %
127 30-03-2020 21:00:18 4 C 29 %
128 30-03-2020 21:10:18 4.1 C 29 %
129 30-03-2020 21:20:18 4.2 C 30 %
130 30-03-2020 21:30:18 4.3 C 30 %
131 30-03-2020 21:40:18 4.2 C 30 %
132 30-03-2020 21:50:18 4.1 C 30 %
133 30-03-2020 22:00:18 3.7 C 32 %
134 30-03-2020 22:10:18 3.7 C 33 %
135 30-03-2020 22:20:17 3.9 C 32 %
136 30-03-2020 22:30:18 4 C 31 %
137 30-03-2020 22:40:18 4.1 C 31 %
138 30-03-2020 22:50:18 4.2 C 31 %
139 30-03-2020 23:00:18 4.1 C 31 %
140 30-03-2020 23:10:18 4.2 C 30 %
141 30-03-2020 23:20:18 4.2 C 31 %
142 30-03-2020 23:30:18 4.1 C 31 %
143 30-03-2020 23:40:18 4.2 C 31 %
144 30-03-2020 23:50:17 4.2 C 31 %
145 31-03-2020 00:00:18 4.3 C 30 %
146 31-03-2020 00:10:18 4.3 C 30 %
147 31-03-2020 00:20:18 4.2 C 31 %
148 31-03-2020 00:30:18 4.2 C 31 %
149 31-03-2020 00:40:18 4.2 C 31 %
150 31-03-2020 00:50:18 4.3 C 31 %
Sensor: Nr:Datum:Temp:Feuchte:
Aussen-T/F 151 31-03-2020 01:00:18 4.4 C 32 %
152 31-03-2020 01:10:18 4 C 34 %
153 31-03-2020 01:20:18 3.8 C 36 %
154 31-03-2020 01:30:18 3.8 C 36 %
155 31-03-2020 01:40:18 3.7 C 37 %
156 31-03-2020 01:50:18 4 C 37 %
157 31-03-2020 02:00:18 3.9 C 38 %
158 31-03-2020 02:10:18 3.4 C 39 %
159 31-03-2020 02:20:17 3.5 C 39 %
160 31-03-2020 02:30:18 3.7 C 39 %
161 31-03-2020 02:40:18 3.3 C 40 %
162 31-03-2020 02:50:18 2.8 C 41 %
163 31-03-2020 03:00:18 2.5 C 41 %
164 31-03-2020 03:10:18 2.2 C 42 %
165 31-03-2020 03:20:17 2.4 C 42 %
166 31-03-2020 03:30:18 2.3 C 42 %
167 31-03-2020 03:40:18 2.3 C 43 %
168 31-03-2020 03:50:18 2.7 C 43 %
169 31-03-2020 04:00:18 2.9 C 42 %
170 31-03-2020 04:10:18 3 C 42 %
171 31-03-2020 04:20:18 3.1 C 42 %
172 31-03-2020 04:30:17 3.2 C 42 %
173 31-03-2020 04:40:18 3.2 C 41 %
174 31-03-2020 04:50:17 3.5 C 41 %
175 31-03-2020 05:00:18 3.4 C 41 %
Sensor: Nr:Datum:Temp:Feuchte:
Aussen-T/F 176 31-03-2020 05:10:18 3 C 41 %
177 31-03-2020 05:20:17 2.8 C 43 %
178 31-03-2020 05:30:18 2.5 C 43 %
179 31-03-2020 05:40:18 2.3 C 43 %
180 31-03-2020 05:50:18 1.9 C 44 %
181 31-03-2020 06:00:18 1.7 C 44 %
182 31-03-2020 06:10:18 1.6 C 45 %
183 31-03-2020 06:20:18 1.5 C 45 %
184 31-03-2020 06:30:18 1.7 C 45 %
185 31-03-2020 06:40:18 2 C 45 %
186 31-03-2020 06:50:18 2.1 C 45 %
187 31-03-2020 07:00:18 2.2 C 45 %
188 31-03-2020 07:10:18 2.3 C 45 %
189 31-03-2020 07:20:18 2.2 C 44 %
190 31-03-2020 07:30:18 2.1 C 44 %
191 31-03-2020 07:40:18 1.7 C 45 %
192 31-03-2020 07:50:17 2 C 45 %
193 31-03-2020 08:00:18 2.5 C 45 %
194 31-03-2020 08:10:18 3.1 C 43 %
195 31-03-2020 08:20:18 3.3 C 42 %
196 31-03-2020 08:30:18 3.5 C 41 %
197 31-03-2020 08:40:18 3.7 C 40 %
198 31-03-2020 08:50:17 4 C 38 %
199 31-03-2020 09:00:18 3.9 C 38 %
200 31-03-2020 09:10:18 3.9 C 37 %
Sensor: Nr:Datum:Temp:Feuchte:
Aussen-T/F 201 31-03-2020 09:20:18 4 C 36 %
202 31-03-2020 09:30:17 4 C 36 %
203 31-03-2020 09:40:17 4.1 C 35 %
204 31-03-2020 09:50:18 4.3 C 35 %
205 31-03-2020 10:00:18 4.8 C 34 %
206 31-03-2020 10:10:18 4.7 C 34 %
207 31-03-2020 10:20:18 4.5 C 34 %
208 31-03-2020 10:30:18 4.4 C 34 %
209 31-03-2020 10:40:18 4.3 C 34 %
210 31-03-2020 10:50:17 4.3 C 33 %
211 31-03-2020 11:00:17 4.3 C 33 %
212 31-03-2020 11:10:17 4.4 C 32 %
213 31-03-2020 11:20:18 4.7 C 31 %
214 31-03-2020 11:30:18 5.4 C 30 %
215 31-03-2020 11:40:18 5.3 C 30 %
216 31-03-2020 11:50:17 5.3 C 29 %
217 31-03-2020 12:00:18 5.6 C 27 %
218 31-03-2020 12:10:18 6.3 C 25 %
219 31-03-2020 12:20:17 6.4 C 20 %
220 31-03-2020 12:30:18 9.2 C 20 %
221 31-03-2020 12:40:18 8.4 C 20 %
222 31-03-2020 12:50:18 7 C 20 %
223 31-03-2020 13:00:17 7.5 C 20 %
224 31-03-2020 13:10:17 7.1 C 20 %
225 31-03-2020 13:20:17 7.3 C 20 %
Sensor: Nr:Datum:Temp:Feuchte:
Aussen-T/F 226 31-03-2020 13:30:17 7 C 20 %
227 31-03-2020 13:40:17 8.1 C 20 %
228 31-03-2020 13:51:17 8.4 C 20 %
229 31-03-2020 14:00:17 8.5 C 20 %
230 31-03-2020 14:10:17 9.7 C 20 %
231 31-03-2020 14:20:17 11.2 C 20 %
232 31-03-2020 14:30:17 12.6 C 20 %
233 31-03-2020 14:40:17 11.7 C 20 %
234 31-03-2020 14:51:17 12 C 20 %
235 31-03-2020 15:00:17 12 C 20 %
236 31-03-2020 15:10:18 13.1 C 20 %
237 31-03-2020 15:20:17 13.2 C 20 %
238 31-03-2020 15:30:17 13.5 C 20 %
239 31-03-2020 15:40:17 14.6 C 20 %
240 31-03-2020 15:50:18 13.9 C 20 %
241 31-03-2020 16:00:17 16.8 C 20 %
242 31-03-2020 16:10:17 14.8 C 20 %
243 31-03-2020 16:20:17 15.8 C 20 %
244 31-03-2020 16:31:17 15.1 C 20 %
245 31-03-2020 16:40:17 14 C 20 %
246 31-03-2020 16:50:17 13.3 C 20 %
247 31-03-2020 17:00:17 14.4 C 20 %
248 31-03-2020 17:10:17 16.2 C 20 %
249 31-03-2020 17:21:17 15.3 C 20 %
250 31-03-2020 17:31:17 14.7 C 20 %
Sensor: Nr:Datum:Temp:Feuchte:
Aussen-T/F 251 31-03-2020 17:40:17 15.5 C 20 %
252 31-03-2020 17:51:17 10.6 C 20 %
253 31-03-2020 18:01:17 10.5 C 20 %
254 31-03-2020 18:11:17 10.2 C 20 %
255 31-03-2020 18:21:17 9.8 C 20 %
256 31-03-2020 18:31:17 9.6 C 20 %
257 31-03-2020 18:40:17 9.4 C 20 %
258 31-03-2020 18:51:17 9.1 C 20 %
259 31-03-2020 19:00:17 9.1 C 20 %
260 31-03-2020 19:10:17 8.8 C 20 %
261 31-03-2020 19:20:17 8.7 C 20 %
262 31-03-2020 19:31:17 8.2 C 20 %
263 31-03-2020 19:41:17 7.7 C 20 %
264 31-03-2020 19:50:17 6.6 C 20 %
265 31-03-2020 20:01:17 5.6 C 20 %
266 31-03-2020 20:11:17 5.5 C 20 %
267 31-03-2020 20:21:17 5.3 C 20 %
268 31-03-2020 20:31:17 4.7 C 20 %
269 31-03-2020 20:41:17 4.4 C 20 %
270 31-03-2020 20:51:17 4 C 20 %
271 31-03-2020 21:00:17 3.7 C 20 %
272 31-03-2020 21:10:18 3.9 C 20 %
273 31-03-2020 21:21:17 3.7 C 20 %
274 31-03-2020 21:31:17 3.5 C 20 %
275 31-03-2020 21:41:17 3.2 C 23 %
Sensor: Nr:Datum:Temp:Feuchte:
Aussen-T/F 276 31-03-2020 21:51:17 3.2 C 23 %
277 31-03-2020 22:00:18 3 C 23 %
278 31-03-2020 22:10:18 2.7 C 25 %
279 31-03-2020 22:21:17 2.7 C 25 %
280 31-03-2020 22:31:17 2.6 C 25 %
281 31-03-2020 22:41:17 1.8 C 30 %
282 31-03-2020 22:50:18 1.6 C 30 %
283 31-03-2020 23:01:17 1.6 C 30 %
284 31-03-2020 23:11:17 1.7 C 30 %
285 31-03-2020 23:21:17 1.4 C 31 %
286 31-03-2020 23:30:17 1.3 C 31 %
287 31-03-2020 23:40:18 1.6 C 31 %
288 31-03-2020 23:51:17 0.9 C 32 %
Sensor: Nr:Datum:Temp:Feuchte:
G-T/H 1 30-03-2020 00:00:18 9.6 C 61 %
2 30-03-2020 00:10:18 9.6 C 60 %
3 30-03-2020 00:20:17 9.6 C 60 %
4 30-03-2020 00:30:17 9.6 C 60 %
5 30-03-2020 00:40:17 9.6 C 60 %
6 30-03-2020 00:50:17 9.5 C 60 %
7 30-03-2020 01:00:18 9.5 C 60 %
8 30-03-2020 01:10:18 9.5 C 61 %
9 30-03-2020 01:20:17 9.5 C 61 %
10 30-03-2020 01:30:18 9.5 C 61 %
11 30-03-2020 01:40:18 9.5 C 61 %
12 30-03-2020 01:50:17 9.4 C 61 %
13 30-03-2020 02:00:17 9.4 C 61 %
14 30-03-2020 02:10:17 9.4 C 61 %
15 30-03-2020 02:20:17 9.4 C 61 %
16 30-03-2020 02:30:18 9.4 C 61 %
17 30-03-2020 02:40:18 9.3 C 61 %
18 30-03-2020 02:50:17 9.3 C 61 %
19 30-03-2020 03:00:18 9.3 C 61 %
20 30-03-2020 03:10:18 9.3 C 61 %
21 30-03-2020 03:20:18 9.3 C 61 %
22 30-03-2020 03:30:18 9.3 C 61 %
23 30-03-2020 03:40:18 9.2 C 61 %
24 30-03-2020 03:50:17 9.2 C 61 %
25 30-03-2020 04:00:18 9.2 C 61 %
Sensor: Nr:Datum:Temp:Feuchte:
G-T/H 26 30-03-2020 04:10:18 9.1 C 61 %
27 30-03-2020 04:20:17 9.2 C 60 %
28 30-03-2020 04:30:17 9.2 C 60 %
29 30-03-2020 04:40:17 9.1 C 60 %
30 30-03-2020 04:50:17 9.1 C 60 %
31 30-03-2020 05:00:17 9 C 60 %
32 30-03-2020 05:10:17 9 C 60 %
33 30-03-2020 05:20:17 9 C 60 %
34 30-03-2020 05:30:18 9 C 60 %
35 30-03-2020 05:40:18 9 C 60 %
36 30-03-2020 05:50:17 9 C 60 %
37 30-03-2020 06:00:18 8.9 C 61 %
38 30-03-2020 06:10:18 8.9 C 61 %
39 30-03-2020 06:20:17 8.9 C 61 %
40 30-03-2020 06:30:17 8.8 C 61 %
41 30-03-2020 06:40:17 8.9 C 61 %
42 30-03-2020 06:50:17 8.8 C 61 %
43 30-03-2020 07:00:17 8.7 C 61 %
44 30-03-2020 07:10:17 8.7 C 61 %
45 30-03-2020 07:20:17 8.7 C 61 %
46 30-03-2020 07:30:18 8.7 C 60 %
47 30-03-2020 07:40:18 8.7 C 60 %
48 30-03-2020 07:50:17 8.7 C 60 %
49 30-03-2020 08:00:18 8.6 C 60 %
50 30-03-2020 08:10:18 8.6 C 60 %
Sensor: Nr:Datum:Temp:Feuchte:
G-T/H 51 30-03-2020 08:20:18 8.6 C 60 %
52 30-03-2020 08:30:18 8.5 C 60 %
53 30-03-2020 08:40:18 8.5 C 60 %
54 30-03-2020 08:50:17 8.5 C 60 %
55 30-03-2020 09:00:18 8.5 C 60 %
56 30-03-2020 09:10:18 8.5 C 60 %
57 30-03-2020 09:20:18 8.5 C 60 %
58 30-03-2020 09:30:18 8.5 C 60 %
59 30-03-2020 09:40:18 8.4 C 60 %
60 30-03-2020 09:50:18 8.4 C 60 %
61 30-03-2020 10:00:18 8.4 C 60 %
62 30-03-2020 10:10:18 8.4 C 60 %
63 30-03-2020 10:20:17 8.3 C 60 %
64 30-03-2020 10:30:17 8.3 C 60 %
65 30-03-2020 10:40:17 8.3 C 60 %
66 30-03-2020 10:50:17 8.3 C 60 %
67 30-03-2020 11:00:17 8.3 C 60 %
68 30-03-2020 11:10:18 8.3 C 60 %
69 30-03-2020 11:20:18 8.2 C 60 %
70 30-03-2020 11:30:18 8.2 C 60 %
71 30-03-2020 11:40:18 8.2 C 60 %
72 30-03-2020 11:50:18 8.2 C 60 %
73 30-03-2020 12:00:18 8.2 C 60 %
74 30-03-2020 12:10:18 8.2 C 60 %
75 30-03-2020 12:20:18 8.2 C 60 %
Sensor: Nr:Datum:Temp:Feuchte:
G-T/H 76 30-03-2020 12:30:18 8.2 C 60 %
77 30-03-2020 12:40:18 8.2 C 60 %
78 30-03-2020 12:50:18 8.2 C 60 %
79 30-03-2020 13:00:18 8.1 C 60 %
80 30-03-2020 13:10:18 8.2 C 60 %
81 30-03-2020 13:20:18 7.9 C 52 %
82 30-03-2020 13:30:17 8 C 50 %
83 30-03-2020 13:40:17 8 C 50 %
84 30-03-2020 13:50:17 8 C 51 %
85 30-03-2020 14:00:17 8 C 52 %
86 30-03-2020 14:10:17 8.1 C 53 %
87 30-03-2020 14:20:18 8.1 C 54 %
88 30-03-2020 14:30:18 8.1 C 54 %
89 30-03-2020 14:40:18 8.1 C 55 %
90 30-03-2020 14:50:18 8.1 C 55 %
91 30-03-2020 15:00:18 8.1 C 56 %
92 30-03-2020 15:10:18 8.1 C 56 %
93 30-03-2020 15:20:17 8.2 C 56 %
94 30-03-2020 15:30:18 8.2 C 56 %
95 30-03-2020 15:40:18 8.2 C 57 %
96 30-03-2020 15:50:18 8.2 C 57 %
97 30-03-2020 16:00:18 8.2 C 57 %
98 30-03-2020 16:10:18 8.3 C 57 %
99 30-03-2020 16:20:17 8.3 C 57 %
100 30-03-2020 16:30:18 8.3 C 58 %
Sensor: Nr:Datum:Temp:Feuchte:
G-T/H 101 30-03-2020 16:40:18 8.3 C 58 %
102 30-03-2020 16:50:18 8.3 C 58 %
103 30-03-2020 17:00:17 8.3 C 58 %
104 30-03-2020 17:10:17 8.3 C 58 %
105 30-03-2020 17:20:18 8.4 C 58 %
106 30-03-2020 17:30:18 8.4 C 58 %
107 30-03-2020 17:40:18 8.4 C 58 %
108 30-03-2020 17:50:18 8.4 C 58 %
109 30-03-2020 18:00:18 8.4 C 59 %
110 30-03-2020 18:10:18 8.4 C 59 %
111 30-03-2020 18:20:18 8.4 C 59 %
112 30-03-2020 18:30:18 8.5 C 59 %
113 30-03-2020 18:40:18 8.4 C 59 %
114 30-03-2020 18:50:18 8.4 C 59 %
115 30-03-2020 19:00:18 8.4 C 60 %
116 30-03-2020 19:10:18 8.5 C 60 %
117 30-03-2020 19:20:17 8.5 C 60 %
118 30-03-2020 19:30:18 8.5 C 60 %
119 30-03-2020 19:40:18 8.5 C 60 %
120 30-03-2020 19:50:17 8.5 C 60 %
121 30-03-2020 20:00:18 8.5 C 60 %
122 30-03-2020 20:10:18 8.5 C 60 %
123 30-03-2020 20:20:17 8.5 C 61 %
124 30-03-2020 20:30:18 8.5 C 61 %
125 30-03-2020 20:40:18 8.5 C 61 %
Sensor: Nr:Datum:Temp:Feuchte:
G-T/H 126 30-03-2020 20:50:18 8.5 C 61 %
127 30-03-2020 21:00:18 8.5 C 61 %
128 30-03-2020 21:10:18 8.5 C 61 %
129 30-03-2020 21:20:18 8.5 C 61 %
130 30-03-2020 21:30:18 8.5 C 61 %
131 30-03-2020 21:40:18 8.5 C 61 %
132 30-03-2020 21:50:18 8.5 C 61 %
133 30-03-2020 22:00:18 8.5 C 62 %
134 30-03-2020 22:10:18 8.5 C 62 %
135 30-03-2020 22:20:17 8.5 C 62 %
136 30-03-2020 22:30:18 8.5 C 62 %
137 30-03-2020 22:40:18 8.5 C 62 %
138 30-03-2020 22:50:18 8.5 C 62 %
139 30-03-2020 23:00:18 8.5 C 62 %
140 30-03-2020 23:10:18 8.5 C 62 %
141 30-03-2020 23:20:18 8.5 C 62 %
142 30-03-2020 23:30:18 8.6 C 62 %
143 30-03-2020 23:40:18 8.5 C 62 %
144 30-03-2020 23:50:17 8.5 C 62 %
145 31-03-2020 00:00:18 8.5 C 62 %
146 31-03-2020 00:10:18 8.5 C 62 %
147 31-03-2020 00:20:18 8.5 C 62 %
148 31-03-2020 00:30:18 8.5 C 63 %
149 31-03-2020 00:40:18 8.6 C 63 %
150 31-03-2020 00:50:18 8.5 C 63 %
Sensor: Nr:Datum:Temp:Feuchte:
G-T/H 151 31-03-2020 01:00:18 8.5 C 63 %
152 31-03-2020 01:10:18 8.5 C 63 %
153 31-03-2020 01:20:18 8.6 C 63 %
154 31-03-2020 01:30:18 8.5 C 63 %
155 31-03-2020 01:40:18 8.6 C 63 %
156 31-03-2020 01:50:18 8.5 C 63 %
157 31-03-2020 02:00:18 8.5 C 63 %
158 31-03-2020 02:10:18 8.5 C 63 %
159 31-03-2020 02:20:17 8.5 C 63 %
160 31-03-2020 02:30:18 8.5 C 63 %
161 31-03-2020 02:40:18 8.5 C 63 %
162 31-03-2020 02:50:18 8.5 C 63 %
163 31-03-2020 03:00:18 8.5 C 64 %
164 31-03-2020 03:10:18 8.5 C 64 %
165 31-03-2020 03:20:17 8.5 C 64 %
166 31-03-2020 03:30:18 8.5 C 64 %
167 31-03-2020 03:40:18 8.5 C 64 %
168 31-03-2020 03:50:18 8.5 C 64 %
169 31-03-2020 04:00:18 8.5 C 64 %
170 31-03-2020 04:10:18 8.5 C 64 %
171 31-03-2020 04:20:18 8.5 C 64 %
172 31-03-2020 04:30:17 8.5 C 64 %
173 31-03-2020 04:40:18 8.5 C 64 %
174 31-03-2020 04:50:17 8.5 C 64 %
175 31-03-2020 05:00:18 8.5 C 64 %
Sensor: Nr:Datum:Temp:Feuchte:
G-T/H 176 31-03-2020 05:10:18 8.5 C 64 %
177 31-03-2020 05:20:17 8.5 C 64 %
178 31-03-2020 05:30:18 8.5 C 64 %
179 31-03-2020 05:40:18 8.5 C 64 %
180 31-03-2020 05:50:18 8.5 C 64 %
181 31-03-2020 06:00:18 8.5 C 64 %
182 31-03-2020 06:10:18 8.5 C 64 %
183 31-03-2020 06:20:18 8.5 C 64 %
184 31-03-2020 06:30:18 8.4 C 64 %
185 31-03-2020 06:40:18 8.5 C 64 %
186 31-03-2020 06:50:18 8.4 C 64 %
187 31-03-2020 07:00:18 8.5 C 64 %
188 31-03-2020 07:10:18 8.4 C 64 %
189 31-03-2020 07:20:18 8.4 C 64 %
190 31-03-2020 07:30:18 8.4 C 64 %
191 31-03-2020 07:40:18 8.4 C 65 %
192 31-03-2020 07:50:17 8.4 C 65 %
193 31-03-2020 08:00:18 8.4 C 65 %
194 31-03-2020 08:10:18 8.4 C 65 %
195 31-03-2020 08:20:18 8.4 C 65 %
196 31-03-2020 08:30:18 8.4 C 65 %
197 31-03-2020 08:40:18 8.4 C 65 %
198 31-03-2020 08:50:17 8.4 C 65 %
199 31-03-2020 09:00:18 8.4 C 65 %
200 31-03-2020 09:10:18 8.4 C 65 %
Sensor: Nr:Datum:Temp:Feuchte:
G-T/H 201 31-03-2020 09:20:18 8.4 C 65 %
202 31-03-2020 09:30:17 8.4 C 65 %
203 31-03-2020 09:40:17 8.4 C 65 %
204 31-03-2020 09:50:18 8.4 C 65 %
205 31-03-2020 10:00:18 8.4 C 65 %
206 31-03-2020 10:10:18 8.4 C 65 %
207 31-03-2020 10:20:18 8.4 C 65 %
208 31-03-2020 10:30:18 8.4 C 65 %
209 31-03-2020 10:40:18 8.4 C 64 %
210 31-03-2020 10:50:17 8.4 C 64 %
211 31-03-2020 11:00:17 8.4 C 64 %
212 31-03-2020 11:10:17 8.4 C 64 %
213 31-03-2020 11:20:18 8.4 C 64 %
214 31-03-2020 11:30:18 8.4 C 64 %
215 31-03-2020 11:40:18 8.4 C 64 %
216 31-03-2020 11:50:17 8.4 C 64 %
217 31-03-2020 12:00:18 8.4 C 64 %
218 31-03-2020 12:10:18 8.4 C 64 %
219 31-03-2020 12:20:17 8.4 C 64 %
220 31-03-2020 12:30:18 8.4 C 64 %
221 31-03-2020 12:40:18 8.5 C 64 %
222 31-03-2020 12:50:18 8.5 C 64 %
223 31-03-2020 13:00:17 8.5 C 64 %
224 31-03-2020 13:10:17 8.5 C 64 %
225 31-03-2020 13:20:17 8.5 C 63 %
Sensor: Nr:Datum:Temp:Feuchte:
G-T/H 226 31-03-2020 13:30:17 8.5 C 63 %
227 31-03-2020 13:40:17 8.4 C 63 %
228 31-03-2020 13:51:17 8.5 C 63 %
229 31-03-2020 14:00:17 8.5 C 63 %
230 31-03-2020 14:10:17 8.5 C 63 %
231 31-03-2020 14:20:17 8.5 C 63 %
232 31-03-2020 14:30:17 8.5 C 63 %
233 31-03-2020 14:40:17 8.5 C 63 %
234 31-03-2020 14:51:17 8.6 C 63 %
235 31-03-2020 15:00:17 8.6 C 63 %
236 31-03-2020 15:10:18 8.6 C 63 %
237 31-03-2020 15:20:17 8.6 C 63 %
238 31-03-2020 15:30:17 8.6 C 63 %
239 31-03-2020 15:40:17 8.6 C 63 %
240 31-03-2020 15:50:18 8.6 C 63 %
241 31-03-2020 16:00:17 8.6 C 63 %
242 31-03-2020 16:10:17 8.6 C 63 %
243 31-03-2020 16:20:17 8.6 C 63 %
244 31-03-2020 16:31:17 8.7 C 63 %
245 31-03-2020 16:40:17 8.7 C 63 %
246 31-03-2020 16:50:17 8.7 C 63 %
247 31-03-2020 17:00:17 8.7 C 63 %
248 31-03-2020 17:10:17 8.7 C 63 %
249 31-03-2020 17:21:17 8.7 C 63 %
250 31-03-2020 17:31:17 8.8 C 63 %
Sensor: Nr:Datum:Temp:Feuchte:
G-T/H 251 31-03-2020 17:40:17 8.8 C 63 %
252 31-03-2020 17:51:17 8.8 C 62 %
253 31-03-2020 18:01:17 8.8 C 59 %
254 31-03-2020 18:11:17 8.8 C 56 %
255 31-03-2020 18:21:17 8.8 C 56 %
256 31-03-2020 18:31:17 8.8 C 56 %
257 31-03-2020 18:40:17 8.8 C 56 %
258 31-03-2020 18:51:17 8.8 C 57 %
259 31-03-2020 19:00:17 8.8 C 58 %
260 31-03-2020 19:10:17 8.9 C 58 %
261 31-03-2020 19:20:17 8.8 C 58 %
262 31-03-2020 19:31:17 8.9 C 59 %
263 31-03-2020 19:41:17 8.9 C 59 %
264 31-03-2020 19:50:17 8.9 C 59 %
265 31-03-2020 20:01:17 8.9 C 60 %
266 31-03-2020 20:11:17 8.9 C 60 %
267 31-03-2020 20:21:17 8.9 C 60 %
268 31-03-2020 20:31:17 8.9 C 61 %
269 31-03-2020 20:41:17 8.9 C 61 %
270 31-03-2020 20:51:17 8.9 C 61 %
271 31-03-2020 21:00:17 8.9 C 61 %
272 31-03-2020 21:10:18 8.9 C 61 %
273 31-03-2020 21:21:17 8.8 C 61 %
274 31-03-2020 21:31:17 8.9 C 61 %
275 31-03-2020 21:41:17 8.9 C 62 %
Sensor: Nr:Datum:Temp:Feuchte:
G-T/H 276 31-03-2020 21:51:17 8.9 C 62 %
277 31-03-2020 22:00:18 8.9 C 62 %
278 31-03-2020 22:10:18 8.8 C 62 %
279 31-03-2020 22:21:17 8.8 C 62 %
280 31-03-2020 22:31:17 8.8 C 62 %
281 31-03-2020 22:41:17 8.8 C 62 %
282 31-03-2020 22:50:18 8.8 C 62 %
283 31-03-2020 23:01:17 8.8 C 62 %
284 31-03-2020 23:11:17 8.8 C 62 %
285 31-03-2020 23:21:17 8.8 C 62 %
286 31-03-2020 23:30:17 8.8 C 62 %
287 31-03-2020 23:40:18 8.8 C 62 %
288 31-03-2020 23:51:17 8.8 C 62 %

Legende:
   Min
   Max


Maximal/Minimal-Werte vom 30.03.2020 - 31.03.2020

Sensor Min Max Avg
Temp
(Aussen-T/F)
-4.5 °C
30-03-2020  07:40:18
16.8 °C
31-03-2020  16:00:17
4.34 °C
Feuchte
(Aussen-T/F)
20 %
30-03-2020  11:10:18
45 %
31-03-2020  06:10:18
30.03 %
Temp
(G-T/H)
7.9 °C
30-03-2020  13:20:18
9.6 °C
30-03-2020  00:00:18
8.61 °C
Feuchte
(G-T/H)
50 %
30-03-2020  13:30:17
65 %
31-03-2020  07:40:18
61.18 %

Die Daten stammen von einer Davis Vantage Pro 2 Wetter-Station und werden unter Linux mit der Software wview2wettercgi und aufbereitet. Alle Angaben erfolgen ohne Gewähr für ihre Vollständigkeit oder Richtigkeit.
Kontakt: Rainer Krienke krienke@uni-koblenz.de . Meine Webseiten an der Uni Koblenz oder privat.
Version: $Revision: 0.78 $